Flag for Spain Weather past 2 weeks in Madrid, Spain

Now
79 °F

Passing clouds.


Feels Like: 78 °F
Forecast: 59 / 78 °F
Wind: 5 mph from Southwest

Location: Madrid / Cuatro Vientos

Current Time: Sep 3, 2015 at 7:33:22 PM

Latest Report: Sep 3, 2015 at 7:00 PM


Visibility: N/A

Pressure: 29.92 "Hg (27.75 "Hg at 658m altitude)

Humidity: 20%

Dew point: 34 °F

Location of MadridLocation

Historic Weather in Madrid — Graph

°F

Madrid temperature yesterday

Maximum temperature yesterday: 86 °F (at 2:00 PM)
Minimum temperature yesterday: 66 °F (at 7:00 AM)
Average temperature yesterday: 79 °F

Past Weeks' High & Low Weather Summary

 TemperatureHumidityPressure
High97 °F (Aug 20, 5:30 PM)100% (Aug 30, 7:30 PM)30.21 "Hg (Aug 30, 7:30 PM)
Low57 °F (Aug 25, 7:00 AM)12% (Aug 20, 7:30 PM)29.86 "Hg (Aug 22, 8:00 PM)
Average79 °F38%30.05 "Hg
* Reported Aug 19 6:00 PM — Sep 3 6:30 PM, Madrid, Weather by CustomWeather, © 2015

Note: Actual official high and low records may vary slightly from our data, if they occured in-between our weather recording intervals... More about our weather records

Advertising

Madrid weather history for previous 24 hours

 ConditionsComfort  
Time TempWeatherWind HumidityBarometerVisibility
6:30 PM
Thu, Sep 3
79 °FPassing clouds.6 mph20%29.95 "HgN/A
6:00 PM79 °FPassing clouds.6 mph18%29.95 "HgN/A
5:30 PM81 °FPassing clouds.7 mph18%29.95 "HgN/A
5:00 PM81 °FPassing clouds.6 mph21%29.95 "HgN/A
4:30 PM79 °FSunny.7 mph26%29.95 "Hg10 mi
4:00 PM79 °FPassing clouds.6 mph24%29.95 "HgN/A
3:30 PM79 °FSunny.5 mph26%29.95 "Hg10 mi
3:00 PM77 °FPassing clouds.8 mph30%29.98 "HgN/A
2:30 PM75 °FPassing clouds.9 mph31%29.98 "HgN/A
2:00 PM75 °FPassing clouds.9 mph34%29.98 "HgN/A
1:30 PM75 °FPassing clouds.12 mph34%29.98 "HgN/A
1:00 PM73 °FPassing clouds.14 mph33%29.98 "HgN/A
12:30 PM73 °FPassing clouds.10 mph31%30.01 "HgN/A
12:00 PM72 °FPassing clouds.12 mph38%29.98 "HgN/A
11:30 AM72 °FPassing clouds.10 mph38%29.98 "HgN/A
11:00 AM70 °FSunny.12 mph38%29.98 "Hg10 mi
10:00 AM66 °FPassing clouds.6 mph52%29.98 "HgN/A
9:30 AM66 °FPassing clouds.3 mph52%29.98 "HgN/A
9:00 AM63 °FPassing clouds.1 mph56%29.98 "HgN/A
8:30 AM61 °FPassing clouds.1 mph59%29.98 "HgN/A
8:00 AM61 °FPassing clouds.No wind55%29.95 "HgN/A
7:30 AM61 °FPassing clouds.7 mph59%29.95 "HgN/A
7:00 AM61 °FPassing clouds.6 mph59%29.95 "HgN/A
10:30 PM
Wed, Sep 2
75 °FPassing clouds.10 mph44%29.92 "HgN/A
10:00 PM77 °FPassing clouds.10 mph42%29.92 "HgN/A
9:30 PM77 °FPassing clouds.8 mph42%29.92 "HgN/A
9:00 PM79 °FPassing clouds.8 mph39%29.89 "HgN/A
8:30 PM81 °FPassing clouds.10 mph34%29.89 "HgN/A
8:00 PM82 °FPassing clouds.9 mph30%29.89 "HgN/A
7:30 PM84 °FPassing clouds.10 mph29%29.89 "HgN/A
7:00 PM86 °FPassing clouds.7 mph27%29.92 "HgN/A
Weather by CustomWeather, © 2015

See weather overviewHow to use our weather pages